Chapel Hill, NC

1:33 AM EST on November 20, 2017 (GMT -0500)
Williams

Weather History for KIGX - October, 2011

Change the Weather History Date:

Tuesday, October 25, 2011

  Actual Average Record
Temperature  
Mean Temperature 58 °F -  
Max Temperature 71 °F 68 °F 79 °F (2012)
Min Temperature 46 °F 43 °F 25 °F (1962)
Degree Days  
Heating Degree Days 6    
Growing Degree Days 8 (Base 50)    
Moisture  
Dew Point 45 °F    
Average Humidity 68    
Maximum Humidity 96    
Minimum Humidity 34    
Precipitation  
Precipitation 0.00 in - - ()
Sea Level Pressure  
Sea Level Pressure 30.19 in    
Wind  
Wind Speed 3 mph (WNW)    
Max Wind Speed 7 mph    
Max Gust Speed -    
Visibility 10 miles    
Events      
Averages and records for this station are not official NWS values.
T = Trace of Precipitation, MM = Missing Value Source: NWS Daily Summary

Daily Weather History Graph

Daily Weather History Graph

Search for Another Location

Airport or City:

Trip Planner

Search our weather history database for the weather conditions in past years. The results will help you decide how hot, cold, wet, or windy it might be!

Date:

Astronomy

Oct. 25, 2011 Rise Set
Actual Time 7:31 AM EDT 6:28 PM EDT
Civil Twilight 7:05 AM EDT 6:54 PM EDT
Nautical Twilight 6:35 AM EDT 7:24 PM EDT
Astronomical Twilight 6:05 AM EDT 7:54 PM EDT
Moon 6:03 AM EDT (10/25) 5:28 PM EDT (10/25)
Length of Visible Light 11h 48m
Length of Day
10h 56m
Waning Crescent, 2% of the Moon is Illuminated
Oct 25
Waning Crescent
Oct 26
New
Nov 2
First Quarter
Nov 10
Full
Nov 18
Last Quarter

Hourly Weather History & Observations

Time (EDT) Temp. Windchill Dew Point Humidity Pressure Visibility Wind Dir Wind Speed Gust Speed Precip Events Conditions
12:56 AM 54.0 °F - 46.0 °F 75% 30.12 in 10.0 mi WNW 4.6 mph - N/A   Clear
1:56 AM 55.0 °F - 46.0 °F 72% 30.13 in 10.0 mi WNW 6.9 mph - N/A   Clear
2:56 AM 52.0 °F - 46.0 °F 80% 30.14 in 10.0 mi WNW 4.6 mph - N/A   Clear
3:56 AM 48.9 °F - 45.0 °F 86% 30.15 in 10.0 mi WNW 4.6 mph - N/A   Clear
4:56 AM 48.9 °F - 45.0 °F 86% 30.16 in 10.0 mi WNW 5.8 mph - N/A   Clear
5:56 AM 46.9 °F - 44.1 °F 90% 30.19 in 10.0 mi WNW 4.6 mph - N/A   Clear
6:56 AM 46.9 °F - 45.0 °F 93% 30.22 in 10.0 mi Calm Calm - N/A   Clear
7:56 AM 46.0 °F 44.8 °F 45.0 °F 96% 30.24 in 10.0 mi West 3.5 mph - N/A   Clear
8:56 AM 53.1 °F - 46.9 °F 80% 30.26 in 10.0 mi Calm Calm - N/A   Clear
9:56 AM 60.1 °F - 46.9 °F 62% 30.27 in 10.0 mi Variable 3.5 mph - N/A   Clear
10:56 AM 64.0 °F - 44.1 °F 48% 30.27 in 10.0 mi Variable 4.6 mph - N/A   Clear
11:56 AM 64.9 °F - 42.1 °F 43% 30.27 in 10.0 mi Calm Calm - N/A   Clear
12:56 PM 68.0 °F - 42.1 °F 39% 30.25 in 10.0 mi North 4.6 mph - N/A   Clear
1:56 PM 68.0 °F - 42.1 °F 39% 30.22 in 10.0 mi West 4.6 mph - N/A   Clear
2:56 PM 71.1 °F - 41.0 °F 34% 30.19 in 10.0 mi East 5.8 mph - N/A   Clear
3:56 PM 71.1 °F - 41.0 °F 34% 30.18 in 10.0 mi Calm Calm - N/A   Clear
4:56 PM 69.1 °F - 44.1 °F 40% 30.17 in 10.0 mi ESE 4.6 mph - N/A   Clear
5:56 PM 64.0 °F - 46.0 °F 52% 30.17 in 10.0 mi Calm Calm - N/A   Clear
6:56 PM 57.9 °F - 48.0 °F 70% 30.18 in 10.0 mi Calm Calm - N/A   Clear
7:56 PM 55.0 °F - 46.9 °F 74% 30.18 in 10.0 mi Calm Calm - N/A   Clear
8:56 PM 53.1 °F - 46.0 °F 77% 30.18 in 10.0 mi Calm Calm - N/A   Clear
9:56 PM 51.1 °F - 45.0 °F 80% 30.18 in 10.0 mi Calm Calm - N/A   Clear
10:56 PM 48.9 °F - 45.0 °F 86% 30.17 in 10.0 mi Calm Calm - N/A   Clear
11:56 PM 48.0 °F - 45.0 °F 89% 30.16 in 10.0 mi Calm Calm - N/A   Clear